Regional Weather Roundup
Issued by NWS

Home | Current Version | Previous Version | Text Only | Print | Product List | Glossary On
Versions: 1 2 3 4 5 6 7 8 9 10 11 12 13 14 15 16 17 18 19 20 21 22 23 24 25 26 27 28
000
ASUS45 KCYS 232110
RWRWY

WYOMING REGIONAL WEATHER ROUNDUP
NATIONAL WEATHER SERVICE CHEYENNE WY
300 PM MDT SAT JUL 23 2016

NOTE:  "FAIR" INDICATES FEW OR NO CLOUDS BELOW 12,000 FEET
WITH NO SIGNIFICANT WEATHER AND/OR OBSTRUCTIONS TO VISIBILITY.

WYZ001-232200-
YELLOWSTONE NATIONAL PARK

CITY           SKY/WX    TMP DP  RH WIND       PRES   REMARKS
LK YELLOWSTONE   N/A     69  27  20 VRB6      30.32S
W YELLOWSTONE  NOT AVBL

$$
WYZ002>013-054>058-071-098>099-232200-
NORTHERN WYOMING

CITY           SKY/WX    TMP DP  RH WIND       PRES   REMARKS
JACKSON        SUNNY     79  28  15 W15       30.21F
CODY           FAIR      82  41  23 NE17      30.08S
GREYBULL       FAIR      89  33  13 N12       29.99F
WORLAND        FAIR      88  28  11 N8        30.00F
SHERIDAN       FAIR      86  40  19 NW14      30.04F
BUFFALO        FAIR      82  42  24 NE8G20    30.10F
GILLETTE       FAIR      83  40  21 N10G18    30.05R
HULETT         FAIR      82  39  21 NW12G21   30.05F
NEWCASTLE      FAIR      88  32  13 W12G26    30.02S

$$
WYZ014>020-022>026-101>103-232200-
CENTRAL WYOMING

CITY           SKY/WX    TMP DP  RH WIND       PRES   REMARKS
BIG PINEY      FAIR      83  23  11 W12G20    30.25S
PINEDALE       FAIR      79  19  11 NW15      30.26S
DUBOIS         FAIR      79  19  11 NW16G30   30.21S
LANDER         FAIR      90  26  10 N9        30.06F
RIVERTON       FAIR      88  17   7 SW8       30.08F
CASPER         FAIR      90  33  13 N10G17    30.05F
DOUGLAS          N/A    N/A N/A N/A MISG      30.04F

$$
WYZ021-027>030-104>119-232200-
SOUTHERN WYOMING

CITY           SKY/WX    TMP DP  RH WIND       PRES   REMARKS
EVANSTON       FAIR      83  13   7 SW10G29   30.28F
KEMMERER         N/A    N/A N/A N/A W18G26    30.28S
FORT BRIDGER   FAIR      86  15   7 SW17G28   30.28F
ROCK SPRINGS   FAIR      86  17   8 W21       30.23F
DIXON          FAIR      89  39  17 W9G16     30.23F
RAWLINS        FAIR      88  24  10 SW18G30   30.21F
SARATOGA       FAIR      86  32  14 W16       30.25F
LARAMIE        LGT RAIN  79  42  26 SW22G29   30.23S
CHEYENNE       PTSUNNY   86  40  19 W13       30.14R THUNDER
TORRINGTON     FAIR      95  42  16 VRB6      29.96F HX  91
PINE BLUFFS    FAIR      90  41  18 NE5       30.05F

$$




USA.gov is the U.S. government's official web portal to all federal, state and local government web resources and services.